64 Commits

Author SHA1 Message Date
74893c97ae lesavka: steady diagnostics and broaden uplink staging 2026-04-20 12:12:29 -03:00
ba443371e6 lesavka: refresh staged devices and steady diagnostics 2026-04-20 11:11:51 -03:00
c24bef1bf2 lesavka: stabilize diagnostics scrolling 2026-04-20 08:57:13 -03:00
c6f9001323 lesavka: add USB recovery controls 2026-04-20 08:38:26 -03:00
50b5f54d27 lesavka: harden gadget audio and uvc startup 2026-04-20 02:28:16 -03:00
fc38925f0d lesavka: refresh live eye detection 2026-04-20 01:41:57 -03:00
64f6ab3336 lesavka: refine launcher capture status 2026-04-20 01:06:50 -03:00
cfdd7feacf lesavka: enable launcher audio and mic paths 2026-04-19 22:58:47 -03:00
2356817080 lesavka: retire broken sd source modes 2026-04-19 22:41:20 -03:00
8273b83017 lesavka: fix sd source preview geometry 2026-04-19 15:07:24 -03:00
6234ee872c lesavka: remove fake source controls 2026-04-19 14:33:52 -03:00
e0a472b714 lesavka: release source hub switches cleanly 2026-04-19 14:14:14 -03:00
ddbbf6b036 lesavka: inherit mirrored source modes 2026-04-19 11:42:41 -03:00
fa2233f59e lesavka: share mirrored sources and tighten launcher fit 2026-04-19 04:24:27 -03:00
25da3137aa lesavka: pivot eye streams to native source modes 2026-04-19 03:28:23 -03:00
e842b0c5c6 lesavka: sync preview feeds on launcher startup 2026-04-18 02:26:24 -03:00
2e47863584 lesavka: expose preview stream and decode caps 2026-04-18 02:12:01 -03:00
381676f3a3 lesavka: disable eye reencode pillarboxing 2026-04-17 21:41:22 -03:00
9386921da8 lesavka: force square-pixel eye reencode 2026-04-17 16:36:08 -03:00
d7277070f0 lesavka: keep inline preview geometry honest 2026-04-17 14:13:44 -03:00
545bda5a96 lesavka: tighten eye stream latency and fit 2026-04-17 13:51:26 -03:00
69c71fb793 lesavka: enlarge inline preview render size 2026-04-17 12:53:39 -03:00
2f11cfa483 lesavka: lighten inline preview feeds 2026-04-17 12:41:23 -03:00
57cd7aac33 lesavka: improve process cpu sampling 2026-04-17 11:54:36 -03:00
7cb0a4d655 lesavka: force reencode when requested 2026-04-17 11:51:19 -03:00
bb4921e7e9 lesavka: tighten default keyframe cadence 2026-04-17 06:17:21 -03:00
f10e8a00ae lesavka: add runtime pressure diagnostics 2026-04-17 06:14:54 -03:00
8f04300aba lesavka: add server-side stream telemetry 2026-04-17 05:59:56 -03:00
4935a5cf42 lesavka: stabilize gtk launcher tests 2026-04-17 05:53:14 -03:00
1a24db04d6 lesavka: deepen stream diagnostics 2026-04-17 05:50:24 -03:00
27db940b2c lesavka: tighten server chip sizing 2026-04-17 05:07:07 -03:00
600a6c2168 lesavka: fully quit launcher on close 2026-04-17 04:53:31 -03:00
4c505be4b2 lesavka: harden local handoff and launcher shutdown 2026-04-17 04:35:41 -03:00
68510c086a lesavka: split eye capture controls for 0.8.0 2026-04-17 01:09:33 -03:00
dddae51ac2 lesavka: keep source and 1080p distinct in 0.7.2 2026-04-17 00:21:18 -03:00
b7803dc432 lesavka: clean up stream profiles for 0.7.1 2026-04-16 22:15:59 -03:00
d4cc469173 lesavka: stabilize preview probes and bump semver 2026-04-16 21:36:16 -03:00
e8670a1c58 lesavka: add live stream telemetry 2026-04-16 21:18:34 -03:00
29944a5fd7 lesavka: show client and server versions 2026-04-16 15:59:42 -03:00
59ed4e5724 lesavka: harden relay input and install flow 2026-04-16 12:58:05 -03:00
e15afc2ebd feat(launcher): stage devices with preview and capture power modes 2026-04-15 01:20:51 -03:00
df6dfefce6 wip(launcher): recover relay and preview lane onto master 2026-04-14 23:03:18 -03:00
7d4754ba31 launcher: stabilize relay controls and paste handling 2026-04-14 18:44:40 -03:00
de122b86e8 ci: add ratcheting quality and hygiene gates 2026-04-10 15:56:18 -03:00
eaa03924ed master: ship webcam hdmi path + secure paste + deploy tooling 2026-04-08 20:00:14 -03:00
57adce2696 camera: add HDMI output path 2026-01-28 17:52:00 -03:00
84790ea470 more logging 2025-07-04 01:56:59 -05:00
1c095a95d1 camera core add 2025-07-03 08:19:59 -05:00
02bdc5d76b Mic Setup 2025-06-30 19:35:38 -05:00
112deaf5be 0.4.0 mostly complete milestone 2025-06-29 03:46:34 -05:00